[[{"header":{"parameterUnit":"m.s-1","parameterCategory":1,"la1":30.2991,"la2":30.254,"lo1":-89.0895,"lo2":-89.0444,"dy":0.0017,"dx":0.0017,"nx":28,"ny":28,"refTime":"2023-07-26T09:00:00:Z","depth":0,"parameterNumber":2,"parameterNumberName":"U-component_of_WINDS"},"data":[0,0,0,0,0,0,0,0,0,0,0,0,0,0,0,0,0,0,0,0,0,0,0,0,0,0,0,0,0,0,0,0,0,0,0,0,0,0,0,0,0,0,0,0,0,0,0,0,0,0,0,0,0,0,0,0,0,0,0.2588,0.2589,0,0.2705,0.2706,0.2707,0.2733,0.2732,0.2731,0.273,0.2853,0.2857,0.2861,0,0,0,0,0,0,0,0,0,0,0,0,0,0.239,0.2393,0.2588,0.2589,0.2591,0.2704,0.2706,0.2708,0.2733,0.2732,0.2731,0.273,0.2852,0.2857,0.2862,0,0,0,0,0,0,0,0,0,0,0,0,0,0.2488,0.2394,0.2588,0.2617,0.2621,0.2704,0.2706,0.2708,0.2733,0.2732,0.273,0.2729,0.285,0.2856,0.2862,0.2926,0,0,0.2881,0.2884,0,0,0,0,0,0,0,0,0.2482,0.2495,0.2611,0.2615,0.2619,0.2703,0.2681,0.2781,0.2733,0.269,0.273,0.2728,0.2805,0.2814,0.2839,0.2932,0.2937,0.2882,0.2885,0.2888,0.289,0,0,0,0,0,0,0,0.2476,0.249,0.2634,0.2613,0.2618,0.2625,0.2638,0.27,0.2753,0.2694,0.2696,0.2709,0.2807,0.2833,0.2842,0.2939,0.2882,0.2887,0.2891,0.2893,0.309,0.3091,0,0,0,0,0,0,0.2463,0.2485,0.263,0.2638,0.2546,0.263,0.2644,0.2677,0.2753,0.2763,0.271,0.271,0.2823,0.2835,0.2847,0.2926,0.2888,0.2894,0.2897,0.3088,0.309,0.3092,0,0,0,0,0,0,0.2459,0.2476,0.2626,0.2562,0.2581,0.2634,0.2672,0.268,0.2707,0.2765,0.2775,0.2728,0.2823,0.2838,0.2906,0.2931,0.2897,0.2902,0.3086,0.3089,0.3091,0.3085,0,0,0,0,0,0,0.2453,0.2474,0.2498,0.2562,0.2585,0.2682,0.2673,0.2683,0.2717,0.2718,0.2784,0.2794,0.2823,0.2897,0.2912,0.2938,0.2907,0.3084,0.3087,0.309,0.3083,0.3087,0.309,0,0,0,0,0,0.2446,0.2493,0.2499,0.2517,0.2616,0.2683,0.2696,0.2728,0.2719,0.2744,0.2781,0.2792,0.2925,0.2903,0.2921,0.295,0.3083,0.3086,0.309,0.3082,0.3086,0.309,0,0,0,0,0,0,0.2432,0.2502,0.251,0.2579,0.2625,0.2687,0.272,0.2732,0.2782,0.2781,0.2819,0.2834,0.2899,0.2932,0.2906,0.3015,0.3004,0.3011,0.2992,0.2996,0.3,0.2991,0.2912,0,0,0,0,0,0.2437,0.2485,0.2544,0.2599,0.2622,0.2667,0.2697,0.2717,0.2767,0.2787,0.283,0.2878,0.2931,0.2966,0.3018,0.3088,0.3103,0.3116,0.312,0.3122,0.3128,0.3167,0.3174,0.3103,0.3103,0.3103,0,0,0.2448,0.2492,0.252,0.2597,0.2635,0.2685,0.2683,0.2736,0.2773,0.2796,0.2862,0.2895,0.2952,0.3021,0.3053,0.3049,0.315,0.3126,0.3128,0.3133,0.3171,0.3178,0.3184,0.3105,0.3105,0.3104,0,0,0.2493,0.2531,0.2581,0.2619,0.2676,0.2705,0.2717,0.2778,0.28,0.2867,0.2884,0.293,0.302,0.306,0.3092,0.3151,0.3163,0.3167,0.3185,0.3223,0.3228,0.3233,0.3254,0.3261,0.3173,0.3173,0.3173,0,0.25,0.2575,0.2606,0.2657,0.2691,0.2712,0.2763,0.2798,0.287,0.2893,0.2887,0.3001,0.3041,0.3119,0.3133,0.3158,0.3174,0.316,0.3225,0.323,0.3235,0.3256,0.3264,0.3173,0.3173,0.3173,0.3173,0,0.258,0.2631,0.2665,0.2732,0.2769,0.282,0.286,0.2894,0.2911,0.2941,0.3009,0.3057,0.3119,0.3139,0.3157,0.322,0.3216,0.3217,0.3206,0.3242,0.3262,0.327,0.3173,0.3173,0.3173,0.3173,0,0,0.2621,0.2703,0.2715,0.2745,0.2809,0.285,0.2902,0.2961,0.299,0.3039,0.3084,0.3159,0.316,0.3196,0.3219,0.3252,0.3295,0.3249,0.3251,0.3256,0.3367,0.3366,0.3375,0.3303,0.3304,0.3306,0.3363,0,0.2674,0.2766,0.2795,0.2873,0.2921,0.2941,0.2987,0.3031,0.3061,0.3107,0.314,0.3193,0.319,0.3212,0.3245,0.3282,0.3318,0.3279,0.3346,0.3348,0.3331,0.3385,0.3384,0.3436,0.3371,0.3372,0.3373,0,0.2748,0.2796,0.2878,0.2935,0.2957,0.2997,0.3053,0.3096,0.3147,0.3166,0.3206,0.3225,0.3281,0.3267,0.3345,0.3318,0.3347,0.3369,0.3372,0.3379,0.3362,0.3394,0.3453,0.346,0.3385,0.3384,0.3384,0,0.2769,0.2855,0.2915,0.294,0.3008,0.3036,0.3066,0.3116,0.3149,0.3198,0.322,0.3276,0.3307,0.335,0.3384,0.337,0.3459,0.3447,0.3477,0.3476,0.3495,0.3493,0.3559,0.3513,0.3513,0.3513,0.3513,0,0.2826,0.2875,0.2925,0.2962,0.3018,0.3051,0.3106,0.3137,0.3181,0.3225,0.3246,0.3287,0.3329,0.3376,0.3403,0.3463,0.3477,0.3494,0.3501,0.3493,0.349,0.3512,0.351,0.3515,0.3515,0.3514,0.3514,0,0.2859,0.2895,0.2961,0.302,0.3035,0.3074,0.3125,0.3162,0.3191,0.3247,0.3262,0.3309,0.3365,0.3403,0.3475,0.3493,0.3558,0.3564,0.354,0.3544,0.3571,0.3567,0.3653,0.3666,0.3611,0.3612,0.3612,0,0.2893,0.2931,0.2993,0.3023,0.3053,0.3101,0.3135,0.3169,0.3203,0.3264,0.3294,0.335,0.3398,0.3486,0.3528,0.3583,0.359,0.3616,0.3599,0.3589,0.3591,0.3588,0.3592,0.3619,0.362,0.362,0.362,0,0.2949,0.2964,0.3011,0.3064,0.3103,0.3147,0.3191,0.3215,0.3257,0.3294,0.3351,0.3387,0.346,0.3516,0.3575,0.3607,0.3621,0.3625,0.3635,0.3627,0.3611,0.362,0.3548,0.3623,0.3623,0.3623,0.3623,0.3623,0.2983,0.3018,0.3066,0.3118,0.3154,0.3195,0.3232,0.3266,0.3313,0.3374,0.3391,0.345,0.35,0.358,0.3613,0.366,0.3658,0.3672,0.3675,0.3678,0.3678,0.3603,0.3671,0.3671,0.3671,0.3671,0.3671,0,0.304,0.3072,0.3119,0.3179,0.3219,0.3227,0.3276,0.331,0.3361,0.3406,0.3451,0.3516,0.3571,0.3616,0.3672,0.3701,0.3709,0.3715,0.3713,0.372,0.3677,0.3663,0.3707,0.3707,0.3707,0.3707,0.3707,0.3707,0.3074,0.3133,0.3154,0.3231,0.3263,0.3319,0.3347,0.3384,0.342,0.349,0.3535,0.3564,0.3609,0.3668,0.3719,0.3731,0.3751,0.3755,0.3768,0.3727,0.3723,0.3719,0.3706,0.3759,0.3759,0.3808,0.3808,0.3808]},{"header":{"parameterUnit":"m.s-1","parameterCategory":1,"la1":30.2991,"la2":30.254,"lo1":-89.0895,"lo2":-89.0444,"dy":0.0017,"dx":0.0017,"nx":28,"ny":28,"refTime":"2023-07-26T09:00:00:Z","depth":0,"parameterNumber":3,"parameterNumberName":"V-component_of_WINDS"},"data":[0,0,0,0,0,0,0,0,0,0,0,0,0,0,0,0,0,0,0,0,0,0,0,0,0,0,0,0,0,0,0,0,0,0,0,0,0,0,0,0,0,0,0,0,0,0,0,0,0,0,0,0,0,0,0,0,0,0,1.6272,1.6271,0,1.621,1.6209,1.6209,1.6214,1.6215,1.6216,1.6217,1.6148,1.6145,1.6142,0,0,0,0,0,0,0,0,0,0,0,0,0,1.6389,1.6386,1.6272,1.6271,1.6271,1.621,1.6209,1.6208,1.6214,1.6215,1.6216,1.6217,1.6149,1.6145,1.6142,0,0,0,0,0,0,0,0,0,0,0,0,0,1.6333,1.6386,1.6272,1.6266,1.6265,1.621,1.6209,1.6208,1.6214,1.6215,1.6217,1.6218,1.615,1.6146,1.6142,1.6087,0,0,1.6129,1.6127,0,0,0,0,0,0,0,0,1.6336,1.6329,1.6268,1.6267,1.6265,1.6221,1.6225,1.6167,1.6213,1.6233,1.6217,1.6219,1.6171,1.6165,1.615,1.6084,1.6081,1.6129,1.6126,1.6124,1.6123,0,0,0,0,0,0,0,1.634,1.6332,1.6247,1.6267,1.6265,1.6264,1.6258,1.6214,1.6194,1.6231,1.6232,1.6225,1.617,1.6154,1.6148,1.608,1.6129,1.6125,1.6123,1.6121,1.5962,1.596,0,0,0,0,0,0,1.6346,1.6335,1.6249,1.6245,1.6305,1.6261,1.6254,1.6234,1.6195,1.619,1.6223,1.6225,1.616,1.6153,1.6146,1.6076,1.6124,1.6121,1.6118,1.5963,1.5961,1.5959,0,0,0,0,0,0,1.6349,1.6339,1.6252,1.629,1.6279,1.6258,1.6235,1.6232,1.6216,1.6189,1.6185,1.6211,1.6161,1.6152,1.6101,1.6074,1.6119,1.6115,1.5965,1.5963,1.596,1.5939,0,0,0,0,0,0,1.6352,1.634,1.632,1.629,1.6277,1.621,1.6233,1.623,1.6209,1.6211,1.6176,1.6171,1.6161,1.6107,1.6097,1.6069,1.6112,1.5968,1.5964,1.5961,1.5942,1.5936,1.5931,0,0,0,0,0,1.6356,1.6316,1.6319,1.6309,1.6253,1.6209,1.6201,1.6192,1.6207,1.6186,1.6168,1.6173,1.6079,1.6102,1.6091,1.6061,1.5969,1.5965,1.5961,1.5944,1.5937,1.5931,0,0,0,0,0,0,1.6343,1.6312,1.6315,1.6265,1.624,1.621,1.6183,1.6185,1.6154,1.6156,1.6145,1.6137,1.6085,1.6068,1.6094,1.6004,1.6026,1.6019,1.6017,1.601,1.6004,1.6008,1.6108,0,0,0,0,0,1.6335,1.6303,1.6278,1.6235,1.6223,1.6205,1.6186,1.6181,1.6153,1.6142,1.6121,1.6092,1.6056,1.6032,1.5998,1.594,1.593,1.5914,1.5908,1.5904,1.5898,1.5862,1.5853,1.5946,1.5946,1.5946,0,0,1.6316,1.6295,1.6276,1.6232,1.6212,1.6177,1.6196,1.6159,1.6132,1.6136,1.6086,1.607,1.6037,1.5981,1.5956,1.5966,1.587,1.5899,1.5896,1.5891,1.5857,1.5848,1.584,1.5944,1.5944,1.5944,0,0,1.6264,1.6247,1.6208,1.6188,1.6157,1.6145,1.6136,1.6106,1.6095,1.6046,1.6047,1.6013,1.5953,1.5928,1.5907,1.5844,1.5845,1.5833,1.5803,1.5768,1.5761,1.5754,1.5728,1.5719,1.5827,1.5827,1.5827,0,1.6244,1.6194,1.6188,1.615,1.6129,1.6132,1.6091,1.607,1.6029,1.6013,1.6026,1.5948,1.5926,1.5863,1.5847,1.5832,1.5818,1.5836,1.5763,1.5756,1.5749,1.5724,1.5715,1.5826,1.5826,1.5826,1.5826,0,1.6169,1.6134,1.6106,1.6067,1.6043,1.6004,1.5989,1.5965,1.5962,1.5948,1.5896,1.587,1.5829,1.5814,1.5811,1.5749,1.5756,1.5766,1.5787,1.5739,1.5715,1.5705,1.5824,1.5824,1.5825,1.5825,0,0,1.6106,1.6064,1.6054,1.6034,1.6,1.5972,1.5931,1.5892,1.587,1.5842,1.5805,1.5752,1.576,1.5737,1.5731,1.5701,1.5647,1.5713,1.5712,1.5699,1.5573,1.5564,1.5553,1.5649,1.5647,1.5646,1.5575,0,1.6048,1.5978,1.5971,1.5907,1.5872,1.5874,1.5838,1.5811,1.5797,1.5763,1.5747,1.5708,1.5724,1.5709,1.568,1.566,1.5621,1.5665,1.561,1.5609,1.5616,1.5541,1.5532,1.5466,1.5566,1.5564,1.5563,0,1.5971,1.5941,1.5874,1.5842,1.5827,1.5795,1.5757,1.5726,1.5695,1.5686,1.5659,1.5656,1.5611,1.5635,1.557,1.5601,1.5578,1.5564,1.5561,1.5553,1.5581,1.5528,1.5446,1.5434,1.5549,1.555,1.5551,0,1.5927,1.587,1.5822,1.5806,1.5768,1.5745,1.5728,1.5698,1.5674,1.5641,1.5624,1.5586,1.5563,1.5532,1.5517,1.5537,1.5451,1.5476,1.5439,1.5439,1.5419,1.542,1.5329,1.541,1.541,1.541,1.5411,0,1.5862,1.5819,1.5801,1.5771,1.5723,1.5714,1.5665,1.5649,1.5622,1.5586,1.5586,1.5552,1.5536,1.5499,1.5487,1.5432,1.5423,1.5412,1.5409,1.541,1.5411,1.5393,1.5396,1.5408,1.5408,1.5409,1.5409,0,1.5804,1.5791,1.5737,1.5706,1.5697,1.5662,1.5634,1.5603,1.559,1.5544,1.5533,1.551,1.5465,1.5448,1.5394,1.5386,1.5322,1.5324,1.5333,1.5331,1.5294,1.5296,1.5185,1.5169,1.5264,1.5263,1.5263,0,1.5761,1.5729,1.5694,1.5671,1.5653,1.5616,1.5592,1.5581,1.5555,1.5515,1.5488,1.5445,1.5409,1.5337,1.5314,1.5271,1.527,1.5234,1.5263,1.5265,1.5265,1.5265,1.526,1.5227,1.5227,1.5226,1.5225,0,1.5686,1.568,1.5646,1.5609,1.558,1.555,1.552,1.55,1.5484,1.5454,1.541,1.5382,1.5327,1.5281,1.5238,1.5217,1.5216,1.5217,1.5205,1.5205,1.5209,1.5202,1.5314,1.5218,1.5219,1.522,1.522,1.522,1.5632,1.5602,1.5572,1.5533,1.551,1.5482,1.545,1.5432,1.5396,1.535,1.5346,1.5296,1.5263,1.5204,1.5181,1.514,1.5149,1.5134,1.5129,1.5125,1.512,1.5219,1.5133,1.5133,1.5133,1.5133,1.5133,0,1.5553,1.5534,1.5498,1.5457,1.5425,1.5431,1.5397,1.537,1.5327,1.5297,1.5262,1.5208,1.5164,1.5137,1.5092,1.5064,1.5062,1.5052,1.5052,1.5047,1.5117,1.5129,1.5054,1.5054,1.5054,1.5054,1.5054,1.5054,1.5508,1.5457,1.5447,1.5383,1.5363,1.5317,1.5297,1.5269,1.5245,1.5186,1.5149,1.5133,1.5102,1.5055,1.5013,1.5006,1.4988,1.4976,1.4969,1.5034,1.5042,1.505,1.5062,1.4973,1.4973,1.4901,1.4901,1.49]}]]